Weather History for Greenville, MS

Change the Weather History Date:

Thursday, October 18, 2012

  Actual Average Record
Temperature  
Mean Temperature 63 °F 64 °F  
Max Temperature 74 °F 76 °F 91 °F (1953)
Min Temperature 51 °F 52 °F 32 °F (1948)
Degree Days  
Heating Degree Days 2 4  
Month to date heating degree days 53 38  
Since 1 July heating degree days 56 44  
Cooling Degree Days 0 3  
Month to date cooling degree days 44 68  
Year to date cooling degree days 2417 2148  
Growing Degree Days 12 (Base 50)    
Moisture  
Dew Point 48 °F    
Average Humidity 63    
Maximum Humidity 100    
Minimum Humidity 25    
Precipitation  
Precipitation 0.00 in 0.15 in 2.95 in (1937)
Month to date precipitation 1.94 2.62  
Year to date precipitation 35.07 40.26  
Sea Level Pressure  
Sea Level Pressure 29.85 in    
Wind  
Wind Speed 8 mph (West)    
Max Wind Speed 21 mph    
Max Gust Speed 25 mph    
Visibility 10 miles    
Events      
T = Trace of Precipitation, MM = Missing Value Source: NWS Daily Summary

Daily Weather History Graph

Daily Weather History Graph

Search for Another Location

Airport:

Trip Planner

Search our weather history database for the weather conditions in past years. The results will help you decide how hot, cold, wet, or windy it might be!

Date:

Astronomy

Oct. 18, 2012 Rise Set
Actual Time 7:11 AM CDT 6:26 PM CDT
Civil Twilight 6:46 AM CDT 6:51 PM CDT
Nautical Twilight 6:17 AM CDT 7:20 PM CDT
Astronomical Twilight 5:48 AM CDT 7:48 PM CDT
Moon 10:43 AM CDT (10/18) 9:10 PM CDT (10/18)
Length of Visible Light 12h 05m
Length of Day
11h 14m
Waxing Crescent, 14% of the Moon is Illuminated
Oct 18
Waxing Crescent
Oct 21
First Quarter
Oct 29
Full
Nov 6
Last Quarter
Nov 13
New

Hourly Weather History & Observations

Time (CDT) Temp. Dew Point Humidity Pressure Visibility Wind Dir Wind Speed Gust Speed Precip Events Conditions
12:06 AM 69.8 °F 64.4 °F 83% 29.70 in 10.0 mi NW 16.1 mph 24.2 mph N/A   Overcast
12:16 AM 69.8 °F 64.4 °F 83% 29.70 in 10.0 mi NW 20.7 mph 24.2 mph N/A   Mostly Cloudy
12:53 AM 66.0 °F 57.9 °F 75% 29.75 in 10.0 mi North 16.1 mph - N/A   Mostly Cloudy
1:53 AM 62.1 °F 57.0 °F 84% 29.77 in 10.0 mi NNE 3.5 mph - N/A   Clear
2:53 AM 57.9 °F 53.1 °F 84% 29.80 in 10.0 mi NNW 5.8 mph - N/A   Clear
3:53 AM 57.0 °F 53.1 °F 87% 29.82 in 10.0 mi NNW 3.5 mph - N/A   Clear
4:53 AM 55.9 °F 53.1 °F 90% 29.85 in 10.0 mi NW 4.6 mph - N/A   Clear
5:53 AM 51.1 °F 50.0 °F 96% 29.86 in 10.0 mi South 4.6 mph - N/A   Clear
6:53 AM 52.0 °F 51.1 °F 97% 29.86 in 10.0 mi Calm Calm - N/A   Clear
7:25 AM 51.8 °F 51.8 °F 100% 29.85 in 0.8 mi Calm Calm - N/A   Clear
7:32 AM 51.8 °F 51.8 °F 100% 29.85 in 10.0 mi Calm Calm - N/A   Clear
7:53 AM 52.0 °F 51.1 °F 97% 29.87 in 10.0 mi Calm Calm - N/A   Clear
8:53 AM 61.0 °F 55.9 °F 83% 29.89 in 10.0 mi West 3.5 mph - N/A   Clear
9:53 AM 66.0 °F 55.9 °F 70% 29.91 in 10.0 mi West 5.8 mph - N/A   Clear
10:53 AM 68.0 °F 48.9 °F 50% 29.91 in 10.0 mi WSW 8.1 mph - N/A   Clear
11:53 AM 71.1 °F 44.1 °F 38% 29.91 in 10.0 mi West 12.7 mph - N/A   Clear
12:53 PM 73.0 °F 39.9 °F 30% 29.90 in 10.0 mi West 13.8 mph 20.7 mph N/A   Clear
1:53 PM 73.0 °F 39.0 °F 29% 29.88 in 10.0 mi West 11.5 mph - N/A   Clear
2:53 PM 73.9 °F 39.9 °F 29% 29.87 in 10.0 mi West 15.0 mph - N/A   Clear
3:53 PM 73.0 °F 39.9 °F 30% 29.86 in 10.0 mi WSW 16.1 mph 25.3 mph N/A   Clear
4:53 PM 73.0 °F 36.0 °F 26% 29.86 in 10.0 mi West 15.0 mph - N/A   Clear
5:53 PM 68.0 °F 37.9 °F 33% 29.86 in 10.0 mi WSW 10.4 mph - N/A   Clear
6:53 PM 63.0 °F 39.9 °F 43% 29.86 in 10.0 mi SW 9.2 mph - N/A   Clear
7:53 PM 59.0 °F 42.1 °F 53% 29.88 in 10.0 mi SW 9.2 mph - N/A   Clear
8:53 PM 61.0 °F 41.0 °F 48% 29.88 in 10.0 mi WSW 9.2 mph - N/A   Clear
9:53 PM 59.0 °F 41.0 °F 51% 29.90 in 10.0 mi WSW 9.2 mph - N/A   Clear
10:53 PM 59.0 °F 41.0 °F 51% 29.90 in 10.0 mi WSW 8.1 mph - N/A   Clear
11:53 PM 59.0 °F 39.0 °F 48% 29.89 in 10.0 mi WSW 9.2 mph - N/A   Clear